Flag for Spain Weather past 2 weeks in Pamplona, Spain

Now
81 °F

Scattered clouds.


Feels Like: 81 °F
Forecast: 60 / 77 °F
Wind: 1 mph from Northeast

Location: Pamplona / Noain

Current Time: Aug 1, 2014 at 4:14:02 PM

Latest Report: Aug 1, 2014 at 3:30 PM


Visibility: N/A

Pressure: 29.80 "Hg

Humidity: 48%

Dew point: 59 °F

Location of PamplonaLocation

Historic Weather in Pamplona — Graph

°F

Pamplona temperature yesterday

Maximum temperature yesterday: 82 °F (at 3:30 PM)
Minimum temperature yesterday: 55 °F (at 6:00 AM)
Average temperature yesterday: 71 °F

Past Weeks' High & Low Weather Summary

 TemperatureHumidityPressure
High97 °F (Jul 17, 5:30 PM)100% (Jul 19, 7:00 AM)30.24 "Hg (Jul 19, 7:00 AM)
Low55 °F (Jul 31, 6:00 AM)23% (Jul 17, 5:30 PM)29.74 "Hg (Jul 18, 9:00 PM)
Average71 °F67%30.02 "Hg
* Reported Jul 17 3:00 PM — Aug 1 3:00 PM, Pamplona, Weather by CustomWeather, © 2014

Note: Actual official high and low records may vary slightly from our data, if they occured in-between our weather recording intervals... More about our weather records

Advertising

Pamplona weather history for previous 24 hours

 ConditionsComfort  
Time TempWeatherWind HumidityBarometerVisibility
3:00 PM
Aug 1
82 °FScattered clouds.2 mph48%29.83 "HgN/A
2:30 PM79 °FScattered clouds.3 mph51%29.83 "HgN/A
2:00 PM79 °FScattered clouds.5 mph54%29.86 "HgN/A
1:30 PM79 °FScattered clouds.5 mph54%29.86 "HgN/A
1:00 PM77 °FScattered clouds.3 mph57%29.89 "HgN/A
12:48 PM75 °FThundershowers. Scattered clouds.1 mph61%29.89 "HgN/A
12:30 PM73 °FScattered clouds.3 mph61%29.89 "HgN/A
12:00 PM73 °FScattered clouds.5 mph65%29.89 "HgN/A
11:30 AM72 °FPassing clouds.1 mph65%29.89 "HgN/A
11:00 AM72 °FPassing clouds.2 mph65%29.89 "HgN/A
10:30 AM70 °FPassing clouds.1 mph73%29.89 "HgN/A
10:00 AM70 °FPassing clouds.No wind69%29.92 "HgN/A
9:30 AM68 °FPassing clouds.No wind73%29.92 "HgN/A
9:00 AM66 °FSunny.No wind83%29.92 "Hg10 mi
8:30 AM64 °FPassing clouds.2 mph88%29.92 "HgN/A
8:00 AM63 °FPassing clouds.1 mph100%29.92 "HgN/A
7:30 AM61 °FPassing clouds.No wind100%29.92 "HgN/A
7:00 AM61 °FPassing clouds.No wind100%29.92 "HgN/A
6:30 AM61 °FClear.2 mph100%29.92 "Hg10 mi
6:00 AM61 °FClear.No wind100%29.92 "Hg10 mi
5:30 AM61 °FClear.No wind100%29.95 "Hg10 mi
12:00 AM66 °FClear.10 mph83%29.98 "Hg10 mi
11:30 PM
Jul 31
66 °FClear.10 mph88%29.98 "Hg10 mi
11:00 PM68 °FClear.10 mph83%29.98 "Hg10 mi
10:30 PM70 °FClear.13 mph78%29.98 "Hg10 mi
10:00 PM70 °FSunny.12 mph78%29.95 "Hg10 mi
9:30 PM72 °FPassing clouds.10 mph73%29.95 "HgN/A
9:00 PM73 °FSunny.12 mph69%29.95 "Hg10 mi
8:30 PM77 °FSunny.12 mph57%29.92 "Hg10 mi
8:00 PM79 °FPassing clouds.8 mph48%29.92 "HgN/A
7:30 PM81 °FPassing clouds.10 mph45%29.92 "HgN/A
7:00 PM81 °FPassing clouds.12 mph48%29.95 "HgN/A
6:30 PM81 °FPassing clouds.12 mph48%29.95 "HgN/A
6:00 PM82 °FPassing clouds.10 mph48%29.95 "HgN/A
5:30 PM82 °FPassing clouds.8 mph48%29.95 "HgN/A
5:00 PM82 °FPassing clouds.10 mph48%29.95 "HgN/A
4:30 PM82 °FPassing clouds.8 mph45%29.95 "HgN/A
4:00 PM82 °FPassing clouds.13 mph42%29.98 "HgN/A
Weather by CustomWeather, © 2014

See weather overviewHow to use our weather pages